星链-11200 (STARLINK-11200)

导读 | 星芒AI

STARLINK-11200 是 SpaceX Starlink 项目中的一颗低轨通信卫星,属于第 56 批部署的星链卫星之一。该卫星于 2023 年发射,旨在为全球用户提供高速互联网服务。它运行在约 550 公里的轨道高度,采用先进推进系统和激光通信技术,以提高网络效率和稳定性。Starlink 卫星群致力于改善偏远地区网络覆盖,支持多种应用场景,包括教育、医疗和应急通信。

基本信息
目录编号:
60310
目录名称:
STARLINK-11200
国际标识:
2024-133K
轨道中心:
EARTH
卫星名称:
星链-11200 (STARLINK-11200)
卫星全名:
星链-11200 (STARLINK-11200)
卫星状态:
在轨 (已飞行458 天)
发射日期:
2024-07-28 UTC
国别 :
美国 (US)
星等 :
--
轨道信息
数据来源 国际轨道数据
星历时间: 2025-10-28T10:26:42+0800
1天前
查看轨道信息
半长轴: 6737.867km
偏心率: 0.0001429
轨道倾角: 53.157°
近地点辐角 82.656°
升交点赤经 79.542°
平近点角 277.462°
近地点: 358.769km
远地点: 360.695km
周期: 91.737分钟
每日圈数: 15.69709
详细信息
卫星平台:
Starlink v2.0 mini
运营商:
太空探索技术公司
运营商所在国:
美国
制造商(研发单位):
太空探索技术公司
制造商所在国:
美国
使用方式:
暂无
卫星简介
星链(Starlink)计划是由太空探索技术公司(SpaceX)提出的一个巨型低轨卫星互联网星座项目,计划在2019年至2024年间在太空搭建由约1.2万颗卫星组成的“星链”网络,其中1584颗将部署在地球上空550千米处的近地轨道,并从2020年开始工作。该卫星仍在工作。
2D轨道图
3D轨道图
轨道高度分析图
轨道倾角分析图
轨道综合分析图
查看轨道综合分析图